User: anonymous   Login
Location: Voyageurs National Park
(48.5020°N, 92.9292°W)
Time: 00:50:54
(UTC-05:00)
Language:

Terra - Orbit

View from above orbital plane
View from above orbital plane
View from above satellite
View from above satellite

Ground track
Ground track

The orbit data is extracted from the following two-line orbital elements,

1 25994U 99068A   15245.88350829 +.00000041 +00000-0 +19212-4 0  9995
2 25994 098.2078 319.3445 0001090 091.4087 268.7207 14.57129543835530
Epoch (UTC): 02 September 2015 21:12:15
Eccentricity: 0.0001090
inclination: 98.2078°
perigee height: 701 km
apogee height: 703 km
right ascension of ascending node: 319.3445°
argument of perigee: 91.4087°
revolutions per day: 14.57129543
mean anomaly at epoch: 268.7207°
orbit number at epoch: 83553

The dashed part of the orbit path shows where the satellite is in the earth's shadow,  

DLR